When you browse on this site, cookies collect data to enhance your experience and personalize the content and advertising you see.
Visit our Privacy Policy to learn more. By continuing to use the site, you agree to this use of cookies and data.

Stündliche Wetter Juárez

Heute, 28 September, Montag

Zeit Temperatur Niederschläge Wind Luftdruck Luftfeuchtigkeit
00:00 +17°C° 0 mm 0 m/S 612 mmHg 41%
01:00 +16°C° 0 mm 0 m/S 612 mmHg 40%
02:00 +16°C° 0 mm 0 m/S 612 mmHg 40%
03:00 +18°C° 0 mm 1 m/S 612 mmHg 40%
04:00 +16°C° 0 mm 1 m/S 612 mmHg 40%
05:00 +16°C° 0 mm 1 m/S 612 mmHg 39%
06:00 +20°C° 0 mm 1 m/S 613 mmHg 36%
07:00 +22°C° 0 mm 1 m/S 614 mmHg 33%
08:00 +25°C° 0 mm 1 m/S 616 mmHg 30%
09:00 +26°C° 0 mm 2 m/S 616 mmHg 28%
10:00 +28°C° 0 mm 3 m/S 617 mmHg 26%
11:00 +29°C° 0 mm 4 m/S 617 mmHg 24%
12:00 +29°C° 0 mm 5 m/S 617 mmHg 25%
13:00 +28°C° 0 mm 6 m/S 616 mmHg 27%
14:00 +28°C° 0 mm 8 m/S 616 mmHg 29%
15:00 +26°C° 0 mm 8 m/S 615 mmHg 37%
16:00 +24°C° 0 mm 8 m/S 615 mmHg 46%
17:00 +22°C° 0 mm 9 m/S 614 mmHg 55%
18:00 +21°C° 0 mm 7 m/S 615 mmHg 60%
19:00 +19°C° 0 mm 6 m/S 616 mmHg 66%
20:00 +17°C° 0 mm 4 m/S 616 mmHg 71%
21:00 +15°C° 0 mm 4 m/S 616 mmHg 74%
22:00 +14°C° 0 mm 3 m/S 616 mmHg 76%
23:00 +14°C° 0 mm 3 m/S 616 mmHg 79%

Morgen, 29 September, Dienstag

Zeit Temperatur Niederschläge Wind Luftdruck Luftfeuchtigkeit
00:00 +14°C° 0 mm 2 m/S 616 mmHg 80%
01:00 +13°C° 0 mm 2 m/S 616 mmHg 82%
02:00 +13°C° 0 mm 2 m/S 616 mmHg 83%
03:00 +12°C° 0 mm 2 m/S 616 mmHg 83%
04:00 +12°C° 0 mm 2 m/S 616 mmHg 83%
05:00 +10°C° 0 mm 2 m/S 616 mmHg 83%
06:00 +12°C° 0 mm 2 m/S 617 mmHg 78%
07:00 +12°C° 0 mm 3 m/S 617 mmHg 74%
08:00 +13°C° 0 mm 3 m/S 618 mmHg 69%
09:00 +14°C° 0 mm 4 m/S 618 mmHg 65%
10:00 +17°C° 0 mm 4 m/S 619 mmHg 61%
11:00 +18°C° 0 mm 4 m/S 619 mmHg 57%
12:00 +19°C° 0 mm 5 m/S 618 mmHg 54%
13:00 +20°C° 0 mm 5 m/S 618 mmHg 50%
14:00 +20°C° 0 mm 5 m/S 618 mmHg 47%
15:00 +20°C° 0 mm 5 m/S 617 mmHg 47%
16:00 +19°C° 0 mm 5 m/S 617 mmHg 48%
17:00 +19°C° 0 mm 5 m/S 617 mmHg 49%
18:00 +17°C° 0 mm 4 m/S 617 mmHg 52%
19:00 +16°C° 0 mm 3 m/S 617 mmHg 55%
20:00 +14°C° 0 mm 2 m/S 617 mmHg 59%
21:00 +14°C° 0 mm 2 m/S 617 mmHg 61%
22:00 +13°C° 0 mm 1 m/S 616 mmHg 63%
23:00 +11°C° 0 mm 0 m/S 616 mmHg 66%

übermorgen, 30 September, Mittwoch

Zeit Temperatur Niederschläge Wind Luftdruck Luftfeuchtigkeit
00:00 +11°C° 0 mm 0 m/S 616 mmHg 66%
01:00 +11°C° 0 mm 1 m/S 615 mmHg 66%
02:00 +11°C° 0 mm 1 m/S 615 mmHg 65%
03:00 +10°C° 0 mm 1 m/S 615 mmHg 66%
04:00 +9°C° 0 mm 0 m/S 615 mmHg 67%
05:00 +8°C° 0 mm 0 m/S 615 mmHg 69%
06:00 +11°C° 0 mm 0 m/S 616 mmHg 61%
07:00 +14°C° 0 mm 1 m/S 617 mmHg 53%
08:00 +16°C° 0 mm 1 m/S 618 mmHg 44%
09:00 +18°C° 0 mm 1 m/S 618 mmHg 40%
10:00 +19°C° 0 mm 2 m/S 618 mmHg 35%
11:00 +20°C° 0 mm 2 m/S 618 mmHg 31%
12:00 +21°C° 0 mm 2 m/S 618 mmHg 29%
13:00 +22°C° 0 mm 3 m/S 618 mmHg 27%
14:00 +24°C° 0 mm 3 m/S 618 mmHg 25%
15:00 +22°C° 0 mm 3 m/S 617 mmHg 27%
16:00 +21°C° 0 mm 3 m/S 617 mmHg 29%
17:00 +20°C° 0 mm 3 m/S 616 mmHg 32%
18:00 +18°C° 0 mm 3 m/S 616 mmHg 33%
19:00 +16°C° 0 mm 2 m/S 616 mmHg 35%
20:00 +14°C° 0 mm 1 m/S 615 mmHg 37%
21:00 +13°C° 0 mm 1 m/S 615 mmHg 39%
22:00 +12°C° 0 mm 0 m/S 615 mmHg 41%
23:00 +11°C° 0 mm 0 m/S 615 mmHg 43%

1 Oktober, Donnerstag

Zeit Temperatur Niederschläge Wind Luftdruck Luftfeuchtigkeit
00:00 +11°C° 0 mm 0 m/S 614 mmHg 43%
01:00 +10°C° 0 mm 0 m/S 614 mmHg 43%
02:00 +10°C° 0 mm 0 m/S 613 mmHg 43%
03:00 +9°C° 0 mm 0 m/S 613 mmHg 43%
04:00 +9°C° 0 mm 0 m/S 613 mmHg 43%
05:00 +9°C° 0 mm 0 m/S 613 mmHg 43%
06:00 +11°C° 0 mm 0 m/S 614 mmHg 38%
07:00 +14°C° 0 mm 0 m/S 616 mmHg 33%
08:00 +17°C° 0 mm 0 m/S 617 mmHg 28%
09:00 +20°C° 0 mm 1 m/S 617 mmHg 27%
10:00 +21°C° 0 mm 2 m/S 618 mmHg 25%
11:00 +23°C° 0 mm 2 m/S 618 mmHg 24%
12:00 +24°C° 0 mm 3 m/S 618 mmHg 23%
13:00 +24°C° 0 mm 3 m/S 617 mmHg 23%
14:00 +25°C° 0 mm 4 m/S 617 mmHg 23%
15:00 +23°C° 0 mm 4 m/S 616 mmHg 25%
16:00 +22°C° 0 mm 4 m/S 616 mmHg 28%
17:00 +21°C° 0 mm 4 m/S 616 mmHg 31%
18:00 +19°C° 0 mm 3 m/S 615 mmHg 33%
19:00 +17°C° 0 mm 2 m/S 615 mmHg 35%
20:00 +15°C° 0 mm 1 m/S 615 mmHg 37%
21:00 +14°C° 0 mm 1 m/S 614 mmHg 37%
22:00 +14°C° 0 mm 1 m/S 614 mmHg 37%
23:00 +14°C° 0 mm 1 m/S 614 mmHg 37%

2 Oktober, Freitag

Zeit Temperatur Niederschläge Wind Luftdruck Luftfeuchtigkeit
00:00 +13°C° 0 mm 1 m/S 614 mmHg 39%
01:00 +13°C° 0 mm 1 m/S 614 mmHg 40%
02:00 +12°C° 0 mm 1 m/S 613 mmHg 42%
03:00 +11°C° 0 mm 1 m/S 613 mmHg 45%
04:00 +10°C° 0 mm 0 m/S 613 mmHg 47%
05:00 +9°C° 0 mm 0 m/S 613 mmHg 50%
06:00 +12°C° 0 mm 0 m/S 614 mmHg 45%
07:00 +15°C° 0 mm 1 m/S 616 mmHg 39%
08:00 +18°C° 0 mm 1 m/S 617 mmHg 34%
09:00 +20°C° 0 mm 1 m/S 617 mmHg 32%
10:00 +20°C° 0 mm 2 m/S 617 mmHg 30%
11:00 +23°C° 0 mm 2 m/S 618 mmHg 29%
12:00 +24°C° 0 mm 2 m/S 617 mmHg 28%
13:00 +24°C° 0 mm 3 m/S 617 mmHg 27%
14:00 +25°C° 0 mm 3 m/S 616 mmHg 27%
15:00 +23°C° 0 mm 4 m/S 616 mmHg 30%
16:00 +22°C° 0 mm 4 m/S 616 mmHg 33%
17:00 +21°C° 0 mm 4 m/S 615 mmHg 35%
18:00 +19°C° 0 mm 4 m/S 615 mmHg 37%
19:00 +17°C° 0 mm 3 m/S 615 mmHg 39%
20:00 +16°C° 0 mm 2 m/S 615 mmHg 40%
21:00 +15°C° 0 mm 2 m/S 615 mmHg 43%
22:00 +14°C° 0 mm 1 m/S 614 mmHg 46%
23:00 +14°C° 0 mm 1 m/S 614 mmHg 49%

3 Oktober, Samstag

Zeit Temperatur Niederschläge Wind Luftdruck Luftfeuchtigkeit
00:00 +12°C° 0 mm 0 m/S 614 mmHg 51%
01:00 +11°C° 0 mm 0 m/S 614 mmHg 52%
02:00 +11°C° 0 mm 0 m/S 613 mmHg 54%
03:00 +11°C° 0 mm 0 m/S 613 mmHg 56%
04:00 +10°C° 0 mm 0 m/S 613 mmHg 58%
05:00 +10°C° 0 mm 0 m/S 613 mmHg 59%
06:00 +13°C° 0 mm 1 m/S 615 mmHg 54%
07:00 +15°C° 0 mm 1 m/S 616 mmHg 48%
08:00 +18°C° 0 mm 1 m/S 617 mmHg 42%
09:00 +19°C° 0 mm 2 m/S 617 mmHg 39%
10:00 +21°C° 0 mm 2 m/S 617 mmHg 35%
11:00 +24°C° 0 mm 2 m/S 618 mmHg 32%
12:00 +24°C° 0 mm 2 m/S 617 mmHg 30%
13:00 +25°C° 0 mm 2 m/S 617 mmHg 28%
14:00 +26°C° 0 mm 2 m/S 617 mmHg 26%
15:00 +25°C° 0 mm 3 m/S 616 mmHg 28%
16:00 +24°C° 0 mm 3 m/S 616 mmHg 31%
17:00 +24°C° 0 mm 3 m/S 616 mmHg 34%
18:00 +21°C° 0 mm 3 m/S 616 mmHg 36%
19:00 +19°C° 0 mm 2 m/S 615 mmHg 37%
20:00 +17°C° 0 mm 2 m/S 615 mmHg 39%
21:00 +16°C° 0 mm 2 m/S 615 mmHg 43%
22:00 +15°C° 0 mm 1 m/S 615 mmHg 47%
23:00 +14°C° 0 mm 0 m/S 615 mmHg 51%
Mehr zeigen